Trapani, Italy

5:20 AM CEST on August 28, 2016 (GMT +0200)
Birgi Mil

Weather History for LICT - January, 2013

Change the Weather History Date:

Saturday, January 12, 2013

  Actual Average Record
Temperature  
Mean Temperature 52 °F -  
Max Temperature 59 °F 59 °F 65 °F (2014)
Min Temperature 46 °F 47 °F 37 °F (2012)
Degree Days  
Heating Degree Days 12    
Growing Degree Days 2 (Base 50)    
Moisture  
Dew Point 47 °F    
Average Humidity 78    
Maximum Humidity 100    
Minimum Humidity 55    
Precipitation  
Precipitation 0.00 in 0.07 in - ()
Sea Level Pressure  
Sea Level Pressure 30.06 in    
Wind  
Wind Speed 12 mph ()    
Max Wind Speed 23 mph    
Max Gust Speed -    
Visibility 6.6 miles    
Events      
Averages and records for this station are not official NWS values.
T = Trace of Precipitation, MM = Missing Value Source: Averaged Metar Reports

Daily Weather History Graph

Daily Weather History Graph

Search for Another Location

Airport or City:

Trip Planner

Search our weather history database for the weather conditions in past years. The results will help you decide how hot, cold, wet, or windy it might be!

Date:

Astronomy

Jan. 12, 2013 Rise Set
Actual Time 7:25 AM CET 5:11 PM CET
Civil Twilight 6:56 AM CET 5:40 PM CET
Nautical Twilight 6:24 AM CET 6:13 PM CET
Astronomical Twilight 5:52 AM CET 6:44 PM CET
Moon 7:33 AM CET (1/12) 6:18 PM CET (1/12)
Length of Visible Light 10h 43m
Length of Day
9h 46m
New Moon, 1% of the Moon is Illuminated
Jan 12
New Moon
Jan 19
First Quarter
Jan 27
Full
Feb 3
Last Quarter
Feb 10
New

Hourly Weather History & Observations

Time (CET) Temp. Windchill Dew Point Humidity Pressure Visibility Wind Dir Wind Speed Gust Speed Precip Events Conditions
12:55 AM 55.4 °F - 46.4 °F 72% 29.98 in 6.2 mi WNW 20.7 mph - N/A   Scattered Clouds
1:00 AM 55 °F - 47 °F 68% 29.99 in 7 mi WNW 20.7 mph - -   Partly Cloudy
2:55 AM 55.4 °F - 48.2 °F 77% 30.01 in 6.2 mi WNW 23.0 mph - N/A   Scattered Clouds
3:55 AM 55.4 °F - 48.2 °F 77% 30.01 in 6.2 mi WNW 20.7 mph - N/A   Scattered Clouds
4:55 AM 53.6 °F - 48.2 °F 82% 30.01 in 6.2 mi WNW 13.8 mph - N/A   Scattered Clouds
5:55 AM 53.6 °F - 48.2 °F 82% 30.01 in 6.2 mi WNW 20.7 mph - N/A   Scattered Clouds
6:55 AM 53.6 °F - 48.2 °F 82% 30.04 in 6.2 mi WNW 15.0 mph - N/A   Scattered Clouds
7:00 AM 54 °F - 48 °F 75% 30.05 in 7 mi WNW 15.0 mph - -   Mostly Cloudy
7:55 AM 55.4 °F - 48.2 °F 77% 30.04 in 6.2 mi WNW 13.8 mph - N/A   Scattered Clouds
8:55 AM 53.6 °F - 48.2 °F 82% 30.06 in 6.2 mi WNW 12.7 mph - N/A   Scattered Clouds
9:55 AM 55.4 °F - 48.2 °F 77% 30.06 in 6.2 mi WNW 13.8 mph - N/A   Scattered Clouds
10:55 AM 57.2 °F - 46.4 °F 67% 30.09 in 6.2 mi WNW 13.8 mph - N/A   Scattered Clouds
11:55 AM 57.2 °F - 46.4 °F 67% 30.06 in 6.2 mi WNW 11.5 mph - N/A   Scattered Clouds
12:55 PM 59.0 °F - 46.4 °F 63% 30.06 in 6.2 mi WNW 13.8 mph - N/A   Scattered Clouds
1:00 PM 59 °F - 47 °F 55% 30.09 in 12 mi WNW 13.8 mph - -   Partly Cloudy
1:55 PM 59.0 °F - 46.4 °F 63% 30.06 in 6.2 mi WNW 11.5 mph - N/A   Scattered Clouds
2:55 PM 59.0 °F - 44.6 °F 59% 30.06 in 6.2 mi NW 10.4 mph - N/A   Scattered Clouds
3:55 PM 57.2 °F - 46.4 °F 67% 30.09 in 6.2 mi NW 6.9 mph - N/A   Scattered Clouds
4:55 PM 55.4 °F - 50.0 °F 82% 30.09 in 6.2 mi WNW 2.3 mph - N/A   Scattered Clouds
5:55 PM 53.6 °F - 48.2 °F 82% 30.09 in 6.2 mi West 4.6 mph - N/A   Scattered Clouds
6:55 PM 51.8 °F - 48.2 °F 88% 30.09 in 6.2 mi West 2.3 mph - N/A   Partly Cloudy
7:00 PM 52 °F - 48 °F 83% 30.11 in 9 mi West 2.3 mph - -   Scattered Clouds
7:55 PM 51.8 °F - 48.2 °F 88% 30.09 in 6.2 mi Calm Calm - N/A   Partly Cloudy
8:55 PM 48.2 °F - 46.4 °F 93% 30.09 in 6.2 mi SE 1.2 mph - N/A   Scattered Clouds
9:55 PM 46.4 °F 45.2 °F 46.4 °F 100% 30.12 in 6.2 mi SE 3.5 mph - N/A   Scattered Clouds
10:55 PM 48.2 °F - 46.4 °F 93% 30.12 in 6.2 mi SSE 3.5 mph - N/A   Partly Cloudy
11:55 PM 46.4 °F 43.5 °F 44.6 °F 93% 30.09 in 6.2 mi SE 5.8 mph - N/A   Partly Cloudy